Location: Unspecified
(0.0000°N, 0.0000°E)
Time: 10:16:52
(UTC+00:00)

Vanguard 1 Rocket - Pass Details

Date: 17 December 2017
Orbit: 652 x 4225 km, 34.3° (Epoch: 15 July)

Event Time Altitude Azimuth Distance (km) Brightness Sun altitude
Rises 22:50:48 0° 313° (NW) 7,157 11.9 -61.7°
Reaches altitude 10° 22:55:04 10° 315° (NW) 6,486 11.6 -62.3°
Enters shadow 22:55:59 12° 316° (NW) 6,349 11.5 -62.4°
Exits shadow 23:34:49 32° 114° (ESE) 5,365 11.1 -66.0°
Drops below altitude 10° 23:43:13 10° 120° (ESE) 6,523 11.8 -66.4°
Sets 23:47:28 0° 121° (ESE) 7,202 12.1 -66.5°
